Meteo pe oră la Bolshie Korshuny

Astăzi, 9 Mai, Duminică

Timp Temperatura Precipitaţii Vânt Presiune Umiditate
00:00 +9°C° 0 mm 3 m/s 747 mmHg 91%
01:00 +9°C° 0 mm 3 m/s 747 mmHg 90%
02:00 +9°C° 0 mm 3 m/s 747 mmHg 88%
03:00 +8°C° 0 mm 4 m/s 746 mmHg 87%
04:00 +10°C° 0 mm 4 m/s 746 mmHg 82%
05:00 +11°C° 0 mm 4 m/s 746 mmHg 77%
06:00 +12°C° 0 mm 5 m/s 746 mmHg 72%
07:00 +14°C° 0 mm 5 m/s 746 mmHg 66%
08:00 +15°C° 0 mm 6 m/s 746 mmHg 60%
09:00 +17°C° 0 mm 6 m/s 746 mmHg 55%
10:00 +18°C° 0 mm 7 m/s 746 mmHg 52%
11:00 +21°C° 0 mm 7 m/s 746 mmHg 49%
12:00 +22°C° 0 mm 7 m/s 746 mmHg 46%
13:00 +21°C° 0 mm 7 m/s 746 mmHg 48%
14:00 +21°C° 0 mm 6 m/s 746 mmHg 50%
15:00 +21°C° 0 mm 5 m/s 746 mmHg 52%
16:00 +20°C° 0 mm 5 m/s 746 mmHg 57%
17:00 +19°C° 0 mm 4 m/s 746 mmHg 61%
18:00 +19°C° 0 mm 3 m/s 746 mmHg 65%
19:00 +18°C° 0 mm 3 m/s 746 mmHg 69%
20:00 +16°C° 0 mm 3 m/s 747 mmHg 72%
21:00 +14°C° 0 mm 4 m/s 747 mmHg 76%
22:00 +14°C° 0.1 mm 3 m/s 747 mmHg 77%
23:00 +13°C° 0.1 mm 3 m/s 747 mmHg 79%

Mâine, 10 Mai, Luni

Timp Temperatura Precipitaţii Vânt Presiune Umiditate
00:00 +13°C° 0.1 mm 3 m/s 747 mmHg 80%
01:00 +13°C° 0.2 mm 3 m/s 748 mmHg 81%
02:00 +13°C° 0.2 mm 3 m/s 748 mmHg 83%
03:00 +13°C° 0.2 mm 3 m/s 749 mmHg 84%
04:00 +14°C° 0 mm 2 m/s 749 mmHg 83%
05:00 +14°C° 0 mm 2 m/s 750 mmHg 82%
06:00 +15°C° 0 mm 2 m/s 750 mmHg 81%
07:00 +16°C° 0 mm 1 m/s 750 mmHg 76%
08:00 +18°C° 0 mm 1 m/s 751 mmHg 71%
09:00 +19°C° 0 mm 1 m/s 751 mmHg 66%
10:00 +19°C° 0 mm 2 m/s 751 mmHg 61%
11:00 +20°C° 0 mm 2 m/s 752 mmHg 56%
12:00 +21°C° 0 mm 2 m/s 752 mmHg 52%
13:00 +21°C° 0 mm 2 m/s 752 mmHg 53%
14:00 +21°C° 0 mm 2 m/s 753 mmHg 54%
15:00 +21°C° 0 mm 2 m/s 753 mmHg 56%
16:00 +20°C° 0.2 mm 2 m/s 753 mmHg 64%
17:00 +18°C° 0.2 mm 3 m/s 754 mmHg 73%
18:00 +17°C° 0.2 mm 4 m/s 754 mmHg 81%
19:00 +15°C° 0.1 mm 4 m/s 754 mmHg 85%
20:00 +13°C° 0.1 mm 4 m/s 755 mmHg 89%
21:00 +12°C° 0.1 mm 4 m/s 755 mmHg 93%
22:00 +12°C° 0 mm 4 m/s 755 mmHg 94%
23:00 +11°C° 0 mm 3 m/s 756 mmHg 95%

Poimâine, 11 Mai, Marţi

Timp Temperatura Precipitaţii Vânt Presiune Umiditate
00:00 +10°C° 0 mm 3 m/s 756 mmHg 96%
01:00 +10°C° 0 mm 3 m/s 756 mmHg 96%
02:00 +10°C° 0 mm 3 m/s 756 mmHg 97%
03:00 +9°C° 0 mm 3 m/s 756 mmHg 97%
04:00 +10°C° 0 mm 3 m/s 757 mmHg 94%
05:00 +10°C° 0 mm 3 m/s 757 mmHg 91%
06:00 +11°C° 0 mm 4 m/s 757 mmHg 89%
07:00 +13°C° 0 mm 3 m/s 757 mmHg 83%
08:00 +16°C° 0 mm 3 m/s 757 mmHg 77%
09:00 +17°C° 0 mm 3 m/s 758 mmHg 71%
10:00 +19°C° 0 mm 3 m/s 758 mmHg 67%
11:00 +20°C° 0 mm 2 m/s 758 mmHg 62%
12:00 +21°C° 0 mm 2 m/s 758 mmHg 58%
13:00 +23°C° 0 mm 2 m/s 758 mmHg 57%
14:00 +23°C° 0 mm 2 m/s 758 mmHg 55%
15:00 +24°C° 0 mm 2 m/s 758 mmHg 54%
16:00 +23°C° 0 mm 2 m/s 758 mmHg 58%
17:00 +21°C° 0 mm 3 m/s 758 mmHg 63%
18:00 +20°C° 0 mm 3 m/s 758 mmHg 67%
19:00 +19°C° 0 mm 3 m/s 758 mmHg 72%
20:00 +17°C° 0 mm 3 m/s 758 mmHg 77%
21:00 +14°C° 0 mm 3 m/s 758 mmHg 81%
22:00 +14°C° 0 mm 3 m/s 759 mmHg 82%
23:00 +13°C° 0 mm 3 m/s 759 mmHg 82%

12 Mai, Miercuri

Timp Temperatura Precipitaţii Vânt Presiune Umiditate
00:00 +13°C° 0 mm 3 m/s 759 mmHg 83%
01:00 +14°C° 0 mm 2 m/s 759 mmHg 83%
02:00 +13°C° 0 mm 2 m/s 759 mmHg 84%
03:00 +13°C° 0 mm 2 m/s 759 mmHg 84%
04:00 +14°C° 0 mm 2 m/s 759 mmHg 82%
05:00 +15°C° 0 mm 2 m/s 759 mmHg 79%
06:00 +16°C° 0 mm 2 m/s 759 mmHg 76%
07:00 +17°C° 0 mm 2 m/s 759 mmHg 71%
08:00 +19°C° 0 mm 3 m/s 759 mmHg 65%
09:00 +21°C° 0 mm 3 m/s 759 mmHg 60%
10:00 +23°C° 0 mm 2 m/s 759 mmHg 55%
11:00 +24°C° 0 mm 2 m/s 759 mmHg 50%
12:00 +25°C° 0 mm 2 m/s 759 mmHg 45%
13:00 +26°C° 0 mm 2 m/s 759 mmHg 43%
14:00 +26°C° 0 mm 2 m/s 759 mmHg 41%
15:00 +26°C° 0 mm 2 m/s 758 mmHg 39%
16:00 +25°C° 0 mm 2 m/s 758 mmHg 43%
17:00 +25°C° 0 mm 1 m/s 758 mmHg 48%
18:00 +24°C° 0 mm 1 m/s 758 mmHg 53%
19:00 +23°C° 0 mm 1 m/s 758 mmHg 55%
20:00 +21°C° 0 mm 1 m/s 758 mmHg 58%
21:00 +20°C° 0 mm 1 m/s 758 mmHg 61%
22:00 +19°C° 0 mm 1 m/s 758 mmHg 62%
23:00 +18°C° 0 mm 1 m/s 758 mmHg 63%

13 Mai, Joi

Timp Temperatura Precipitaţii Vânt Presiune Umiditate
00:00 +16°C° 0 mm 1 m/s 758 mmHg 64%
01:00 +16°C° 0 mm 1 m/s 758 mmHg 63%
02:00 +15°C° 0 mm 1 m/s 758 mmHg 63%
03:00 +15°C° 0 mm 2 m/s 759 mmHg 63%
04:00 +15°C° 0 mm 2 m/s 759 mmHg 62%
05:00 +16°C° 0 mm 2 m/s 759 mmHg 62%
06:00 +17°C° 0 mm 2 m/s 759 mmHg 61%
07:00 +19°C° 0 mm 2 m/s 759 mmHg 56%
08:00 +21°C° 0 mm 2 m/s 759 mmHg 51%
09:00 +22°C° 0 mm 3 m/s 759 mmHg 45%
10:00 +24°C° 0 mm 3 m/s 759 mmHg 43%
11:00 +25°C° 0 mm 3 m/s 759 mmHg 40%
12:00 +26°C° 0 mm 3 m/s 758 mmHg 37%
13:00 +26°C° 0 mm 3 m/s 758 mmHg 36%
14:00 +27°C° 0 mm 3 m/s 758 mmHg 35%
15:00 +27°C° 0 mm 3 m/s 758 mmHg 34%
16:00 +26°C° 0 mm 3 m/s 758 mmHg 40%
17:00 +25°C° 0 mm 2 m/s 757 mmHg 46%
18:00 +24°C° 0 mm 2 m/s 757 mmHg 51%
19:00 +21°C° 0 mm 2 m/s 757 mmHg 54%
20:00 +19°C° 0 mm 2 m/s 757 mmHg 56%
21:00 +18°C° 0 mm 2 m/s 757 mmHg 59%
22:00 +17°C° 0 mm 2 m/s 757 mmHg 60%
23:00 +17°C° 0 mm 2 m/s 757 mmHg 61%

14 Mai, Vineri

Timp Temperatura Precipitaţii Vânt Presiune Umiditate
00:00 +16°C° 0 mm 2 m/s 757 mmHg 62%
01:00 +16°C° 0 mm 2 m/s 757 mmHg 62%
02:00 +16°C° 0 mm 2 m/s 757 mmHg 63%
03:00 +15°C° 0 mm 2 m/s 757 mmHg 63%
04:00 +16°C° 0 mm 2 m/s 757 mmHg 64%
05:00 +17°C° 0 mm 2 m/s 757 mmHg 65%
06:00 +18°C° 0 mm 2 m/s 757 mmHg 65%
07:00 +19°C° 0 mm 3 m/s 757 mmHg 59%
08:00 +21°C° 0 mm 3 m/s 757 mmHg 53%
09:00 +23°C° 0 mm 4 m/s 757 mmHg 47%
10:00 +25°C° 0 mm 4 m/s 757 mmHg 43%
11:00 +26°C° 0 mm 4 m/s 757 mmHg 39%
12:00 +27°C° 0 mm 5 m/s 756 mmHg 36%
13:00 +26°C° 0 mm 5 m/s 756 mmHg 37%
14:00 +26°C° 0 mm 5 m/s 756 mmHg 39%
15:00 +26°C° 0 mm 5 m/s 756 mmHg 40%
16:00 +25°C° 0 mm 4 m/s 756 mmHg 45%
17:00 +24°C° 0 mm 3 m/s 755 mmHg 50%
18:00 +24°C° 0 mm 3 m/s 755 mmHg 54%
19:00 +21°C° 0 mm 3 m/s 755 mmHg 58%
20:00 +19°C° 0 mm 3 m/s 755 mmHg 61%
21:00 +18°C° 0 mm 3 m/s 754 mmHg 65%
22:00 +18°C° 0 mm 3 m/s 754 mmHg 65%
23:00 +17°C° 0 mm 3 m/s 754 mmHg 66%
Arată mai mult

Formular de consimțământ

Meteoprog și furnizorii noștri de servicii pot stoca și accesa date personale, precum cookies, identificatori de dispozitiv sau alte tehnologii similare pe dispozitivul dumneavoastră și procesa astfel de date pentru a personaliza conținutul și reclamele, dar și pentru a oferi caracteristici de social media și pentru a analiza traficul.

  • Stocarea și/sau accesarea informațiilor pe dispozitivul dumneavoastră

    Cookies, identificatori de dispozitiv sau alte informații pot fi stocate sau accesate pe dispozitiv în scopurile indicate mai sus.

  • Reclame și conținut personalizat, evaluarea reclamelor și a conținutului, informații despre audiențe și dezvoltarea produselor

    Reclamele și conținutul pot fi personalizate pe baza unui profil. Pot fi adăugate date suplimentare pentru a personaliza mai bine reclamele și conținutul. Performanța reclamelor și conținutului poate fi măsurată. Pot fi obținute informații despre utilizatorii care au văzut reclamele și conținutul. Aceste date pot fi utilizate pentru a dezvolta sau îmbunătăți experiența utilizatorilor, sistemele și software-ul.

Dând clic pe ‘Sunt de acord’, permiteți utilizarea cookie-urilor menționate, a identificatorilor de dispozitiv, balizelor web sau altor tehnologii similare. Setările pot fi modificate din browser-ul dispozitivului dumneavoastră.

În anumite scopuri, interesele legitime pot prima asupra consimțământului. Puteți citi mai multe informații în acest sens în Politica privind Confidențialitatea Datelor și Cookie.